OBJECT BF, 60521

Orbit data source: Space-Track

You're viewing an Uncataloged Satellite

Recently launched and/or uncataloged satellites may have evolving metadata. Metadata may include but not limited to: Owner, Maufacturer, Bus, Motor, and Mission.

OBJECT BF, 60521 is a satellite in SSO that was launched on Fri, 16 Aug 2024 UTC via an FALCON 9 launch vehicle from the Air Force Western Test Range (AFWTR). Unknown objects in Earth's orbit typically refer to objects detected orbiting the Earth but have not yet been identified or cataloged. These objects could be anything from previously untracked satellites, spent rocket stages, debris from satellite collisions, or even natural meteoroids temporarily captured by Earth's gravity.

Loading next visibility...
Identifier
60521, 2024-149BF
Orbit
SSO
Country
Flag of TBDTBD
Related business
Flag of SESwedish Defence Research Agency (SE)
Manufacturer
FOI
Mission
Operational Defense Communications
Bus & Motor
CUBESAT 3U, Unknown motor
Mass
4 kg wet, 4 kg dry
Launch date (UTC)
2024-08-16 (1 year ago)
Launch vehicle
FALCON 9
Launch site
Air Force Western Test Range (AFWTR)
Object type
Unknown
Shape & HBR
Box, 0.1 m
Radar Cross Section
0.035 m², Medium (>0.1 m² and < 1m²)

Expand to show TLE details & history
Last TLE update: 6 hours ago

TLE from 6 hours ago
0 OBJECT BF
1 60521U 24149BF  26035.17007654  .00062614  00000-0  92174-3 0  9995
2 60521  97.3878 124.4307 0003498  31.2065 328.9396 15.55227556 82250
Epoch: 2026-02-04T04:04Z
TLE epoch observation values (Epoch: 2026-02-04T04:04:54.613Z)
Latitude
-0.00003°
Longitude
-71.13736°
Altitude
402.598 km
Speed
7.67 km/s
True Right ascension
08h 17m 43s
True Declination
0° 00' 00"
Sunlit
Object was in full shadow at epoch
Visualization orbit readout
Latitude
Unknown
Longitude
Unknown
Altitude
Unknown
Speed
Unknown
Apparent Right ascension
Unknown
Apparent Declination
Unknown
Sunlit
N/A
Visualization observer readout
Local Sidereal Time
12:25:22
Azimuth
Unknown
Elevation
Unknown
Doppler factor
Unknown
Orbital elements
Apogee altitude
400.78 km
Perigee altitude
396.039 km
Semi-major axis
6,776.546 km
Eccentricity
0.00035
Inclination
97.3878°
RAAN
124.4307°
Arg. of periapsis
31.2065°
True anomaly
328.91891°
Mean anomaly
328.9396°
Eccentric anomaly
328.92926°
Mean motion
3.89073 °/min
Orbital period
92.53 mins
BSTAR
0.00092174
Loading maneuver chart data...
Computing Atmospheric mass density...
Loading historical data...
Loading historical data...
Loading historical data...
Loading historical data...
Loading historical data...
Loading historical data...
Loading historical data...

Documentation

Showing up to 5 results
|